Date,TemperatureHighF,TemperatureAvgF,TemperatureLowF,DewpointHighF,DewpointAvgF,DewpointLowF,HumidityHigh,HumidityAvg,HumidityLow,PressureMaxIn,PressureMinIn,WindSpeedMaxMPH,WindSpeedAvgMPH,GustSpeedMaxMPH,PrecipitationSumIn
2013-10-1,95.5,81.5,69.1,77.8,73.7,68.6,99,80,49,29.86,29.73,4,1,11,0.00
2013-10-2,95.4,81.6,68.7,79.3,74.3,68.5,99,81,52,29.82,29.70,5,1,12,0.00
2013-10-3,96.1,80.7,69.4,81.1,74.9,69.2,99,85,50,29.77,29.61,4,1,10,0.00
2013-10-4,94.3,81.6,68.5,80.7,74.4,68.3,99,81,54,29.77,29.67,6,1,14,0.01
2013-10-5,95.9,81.9,69.4,79.1,74.2,69.2,99,80,51,29.82,29.70,5,1,13,0.00
2013-10-6,94.5,80.7,70.0,79.3,72.7,69.7,99,79,50,29.79,29.65,5,1,13,0.00
2013-10-7,91.8,78.5,65.8,75.4,70.7,65.6,99,80,52,29.75,29.62,5,1,12,0.00
2013-10-8,94.6,78.6,63.3,77.3,71.6,63.1,99,82,52,29.70,29.62,5,1,11,0.00
2013-10-9,95.2,79.5,63.1,79.5,71.3,62.9,99,79,52,29.82,29.67,5,1,13,0.00
2013-10-10,95.4,82.9,75.7,77.2,72.1,66.2,99,73,41,29.89,29.73,5,1,11,0.00
2013-10-11,93.9,81.7,67.8,73.2,67.7,61.5,99,67,36,29.82,29.68,5,1,12,0.00
2013-10-12,95.0,80.3,64.6,73.9,67.5,64.3,99,70,40,29.78,29.68,4,1,14,0.00
2013-10-13,104.4,81.1,67.1,82.3,74.4,54.6,99,83,48,29.78,29.65,7,1,11,0.00
2013-10-14,102.7,84.9,77.4,86.1,80.7,62.0,99,88,68,29.77,29.63,5,1,11,0.00
2013-10-15,105.1,83.9,76.3,86.0,80.2,59.0,99,90,66,29.83,29.69,5,1,12,0.00
2013-10-16,111.4,84.0,75.0,79.5,77.6,73.1,99,83,58,29.87,29.74,4,1,13,0.01
2013-10-17,89.6,78.5,71.8,83.1,76.8,61.3,99,95,69,29.86,29.72,3,0,8,0.00
2013-10-18,95.2,81.9,74.5,83.2,77.8,55.1,99,88,59,29.82,29.72,5,1,11,0.00
2013-10-19,111.0,82.4,71.6,79.5,74.2,55.3,99,79,48,29.84,29.74,7,1,12,0.00
2013-10-20,100.9,82.6,73.6,79.1,73.5,59.8,99,78,45,29.83,29.70,6,1,14,0.00
2013-10-21,105.3,81.5,73.9,78.8,73.9,56.4,99,81,39,29.77,29.67,6,1,12,0.00
2013-10-22,101.8,76.9,71.2,84.5,75.9,61.8,99,97,79,29.76,29.67,4,1,10,0.01
2013-10-23,95.4,82.1,60.6,86.2,76.9,57.3,99,86,61,29.77,29.64,6,1,13,0.00
2013-10-24,95.0,81.1,69.8,84.4,74.9,61.9,99,83,55,29.76,29.65,5,1,11,0.00
2013-10-25,95.7,81.0,59.4,79.0,71.1,52.8,99,76,40,29.82,29.69,4,1,11,0.00
2013-10-26,97.2,84.0,72.5,77.9,73.1,66.3,99,74,40,29.86,29.75,4,1,11,0.00
2013-10-27,96.4,83.2,69.8,81.3,73.7,69.5,99,77,45,29.84,29.75,4,1,11,0.00
2013-10-28,81.3,73.4,70.5,77.4,73.0,70.3,99,98,85,29.84,29.80,2,0,4,0.00